Weather in Wakkanai

Japan     45°24′50″N   141°40′28″E
temp.,
°C
wind,
m/s
gust,
m/s
humid.,
%
clouds,
%
prec.,
mm/h
press.,
hPa
HPBL,
m
18 may, tue
tue1800:00+9e2281100 0.0 100615
03:00+9ese4482100 0.0 100757
06:00+10se337846 0.0 100837
09:00+13sw22680 0.0 100977
12:00+13wsw24750 0.0 100993
15:00+13wsw12731 0.0 101063
18:00+13s577587 0.0 101082
21:00+12ssw81274100 0.0 1010136
19 may, wed
wed1900:00+11ssw91281100 0.0 1011144
03:00+11ssw101382100 0.0 1010165
06:00+12ssw1116825 0.0 1011225
09:00+12ssw111479100 0.0 1011216
12:00+12ssw91280100 0.0 1011177
15:00+12ssw6980100 0.0 1010111
18:00+12ssw6982100 0.0 1010110
21:00+11ssw81185100 0.0 1011147
20 may, thu
thu2000:00+11ssw6889100 0.0 1012104
03:00+11ssw10138712 0.0 1011197
06:00+11ssw912901 0.0 1013189
09:00+12ssw1113864 0.0 1013244
12:00+12ssw1013840 0.0 1013222
15:00+12ssw912860 0.0 1012187
18:00+12ssw1216880 0.0 1011238
21:00+12ssw1216894 0.0 1012239
21 may, fri
fri2100:00+12ssw1319855 0.0 1010277
03:00+13ssw13198460 0.0 1009266
06:00+13ssw101684100 0.0 1009217
09:00+13ssw10148099 0.0 1008168
12:00+13sw71080100 0.0 1007104
15:00+13sw4580100 0.0 100770
18:00+13ssw5682100 0.0 100754
21:00+12ssw4692100 0.0 100871
22 may, sat
sat2200:00+12sse1189100 0.0 100711
03:00+11e5893100 0.0 100884
06:00+9e91394100 0.0 1008237
09:00+8ene101395100 0.0 1009266
12:00+8ene101293100 0.0 1009328
15:00+7ene101294100 0.0 1009317
18:00+7ene101297100 0.0 1010300
21:00+7ene91197100 0.0 1011324